GFSNGP_850_spd_132.txt.gz
Wind_Speed
6 6 2 4 7 7 3 5 5 3 5 5 5 6 7 6 3 4 7 7 4 2 5 11 13 22 33 35 36 43 41 36 34 31 32 31 30 31 29 27 28 24 18 16
2 4 4 3 6 6 5 4 5 4 1 4 5 7 4 3 6 7 9 9 8 9 9 15 16 18 18 24 35 43 37 42 38 32 36 34 31 30 30 30 27 22 19 20
2 3 3 3 3 2 3 6 2 3 5 6 5 8 13 11 8 6 5 7 6 3 4 7 12 19 22 16 22 36 35 42 27 31 31 33 35 33 33 28 28 24 22 21
3 4 2 7 3 4 6 3 5 1 4 12 4 7 7 6 3 3 8 9 10 7 3 4 8 5 10 15 14 18 35 42 43 37 38 36 39 36 33 30 27 25 24 23
4 4 3 1 1 2 2 2 3 3 3 4 2 1 4 3 4 9 12 11 7 5 3 4 5 9 11 7 13 15 24 29 34 35 37 42 42 38 35 32 29 26 27 27
3 5 5 7 4 6 4 3 1 4 7 8 8 1 5 7 7 9 11 9 7 6 4 4 1 6 9 2 10 19 21 34 44 40 27 39 41 39 37 33 30 29 27 24
3 3 4 4 9 7 2 6 8 6 8 15 7 14 5 13 12 11 10 8 7 7 4 1 1 4 7 10 14 10 16 24 36 34 28 26 33 31 31 27 22 23 18 15
3 3 4 10 4 4 5 6 9 8 11 16 22 14 10 11 8 4 6 8 7 8 7 5 4 4 3 14 21 21 17 24 34 34 25 22 22 18 22 18 17 16 16 17
6 6 4 6 2 8 11 14 10 11 10 9 14 15 14 10 6 6 5 1 1 4 6 7 7 10 2 7 10 16 14 24 25 27 27 27 25 22 18 14 14 16 16 19
4 3 6 15 17 16 12 11 9 5 5 12 15 16 14 10 12 10 9 9 7 4 5 7 7 8 3 4 5 15 17 17 23 27 24 21 18 19 19 18 18 19 19 20
2 11 18 11 17 15 12 11 4 5 4 5 20 10 14 11 9 12 12 13 12 11 9 9 10 9 7 9 10 16 19 19 17 18 12 20 22 22 19 19 17 17 18 19
5 18 10 14 18 10 9 7 9 17 13 12 14 14 9 9 7 8 10 14 16 18 18 16 13 14 14 12 14 22 20 20 16 12 17 16 13 15 15 15 14 13 13 10
4 14 11 14 15 14 12 14 17 13 13 14 16 15 14 14 11 10 11 14 17 19 20 20 20 21 20 19 18 19 19 20 19 18 18 17 17 15 19 20 18 17 15 14
19 25 20 24 19 21 20 21 18 14 12 15 15 16 15 16 17 17 16 16 17 21 22 23 22 25 26 25 23 24 25 25 26 25 24 23 22 20 18 17 17 18 17 16
22 16 19 22 20 24 24 23 22 20 17 16 14 16 15 17 18 18 19 19 20 21 23 23 20 20 20 20 18 17 17 18 18 19 19 19 21 20 18 17 17 17 16 15
22 16 26 35 28 27 30 29 28 27 22 20 21 19 17 16 18 20 21 21 21 21 19 18 17 15 16 16 15 15 16 14 14 15 16 14 13 14 14 12 12 11 12 12
13 15 30 33 34 36 36 33 34 27 24 22 20 20 22 23 22 21 20 18 16 16 15 14 14 13 12 12 14 12 12 13 8 10 10 12 14 12 12 10 11 10 12 11
5 12 29 31 38 36 36 37 30 26 27 24 23 25 28 28 25 22 19 19 18 16 15 12 11 12 12 16 15 15 13 12 10 10 11 10 11 11 10 12 14 15 12 10
7 5 23 29 27 31 35 36 30 27 28 27 28 29 28 24 22 22 24 21 18 17 13 12 12 14 17 17 14 12 13 9 6 6 7 11 12 10 13 13 14 12 12 10
15 12 9 9 16 30 28 28 31 33 31 30 29 28 28 25 23 22 21 19 14 9 9 8 8 8 12 18 17 15 12 11 9 9 14 10 12 13 11 10 8 8 8 8
27 22 22 15 9 25 32 31 32 33 33 32 31 31 30 30 27 21 21 19 16 12 10 7 5 7 11 18 18 15 13 13 14 11 12 13 13 11 8 6 4 4 6 7
25 24 21 21 14 19 35 31 30 31 33 35 33 31 32 30 26 23 19 15 13 13 11 9 6 7 14 19 16 15 14 14 12 13 13 11 10 8 6 6 7 5 3 2
22 22 23 25 22 16 36 34 32 31 34 35 34 34 34 32 29 28 25 21 15 12 12 9 8 9 17 19 14 16 16 15 13 13 12 11 9 8 6 5 4 2 3 2
9 12 22 29 24 23 33 38 36 36 34 32 32 31 33 33 29 26 23 20 18 15 14 11 10 13 17 21 18 16 15 15 14 16 15 12 8 6 4 3 0 1 3 5
10 9 6 15 22 25 24 33 41 40 39 37 35 34 31 26 22 22 26 24 21 18 15 13 12 12 12 18 20 20 18 19 18 16 13 12 10 7 4 1 1 3 2 4
11 11 13 13 11 21 28 32 42 44 42 43 40 36 32 29 26 23 25 26 24 21 17 18 15 15 15 21 26 23 22 21 20 18 17 15 11 8 6 4 3 2 2 0
17 14 15 18 19 17 20 35 41 46 45 42 39 36 34 32 30 28 26 26 26 24 21 18 19 17 17 22 26 24 22 22 20 19 18 17 15 13 11 11 8 6 4 2

GFSNGP_850_spd_135.txt.gz
Wind_Speed
3 3 2 2 3 2 5 5 5 4 8 5 7 7 5 5 8 10 8 7 8 8 8 9 12 16 22 31 30 32 34 43 44 42 46 38 37 38 38 36 32 29 27 26
1 1 2 2 2 7 4 5 5 5 1 4 6 7 8 9 8 10 11 12 10 8 8 8 9 12 17 25 33 37 41 46 43 41 43 42 37 35 36 38 36 33 32 29
1 2 4 3 3 4 3 2 5 3 6 5 6 11 12 10 6 6 7 9 8 5 3 2 4 9 14 18 23 29 34 42 47 42 47 44 38 35 34 35 36 33 31 29
3 2 1 6 4 3 7 3 1 2 4 6 5 9 10 10 9 9 10 11 10 7 4 2 3 5 8 11 17 22 27 36 42 44 44 47 38 38 36 34 33 33 32 31
5 4 4 1 4 5 5 3 3 4 2 5 4 4 10 13 12 12 13 14 9 8 8 5 5 4 10 11 15 20 27 34 41 51 46 46 36 40 37 37 35 35 32 31
3 5 6 7 2 8 5 3 8 8 8 10 9 1 6 12 13 12 12 13 12 9 6 2 3 6 9 9 15 15 25 31 30 40 45 44 41 36 30 35 35 33 31 28
3 3 5 6 4 6 5 7 15 16 14 12 6 13 9 10 13 9 8 9 10 8 6 3 5 2 7 13 18 25 25 28 27 27 34 37 37 37 32 33 35 35 33 31
3 4 4 9 6 6 7 7 13 14 15 14 18 7 6 8 7 6 7 9 9 9 8 8 6 4 4 12 16 16 15 16 22 25 36 22 16 24 30 35 38 32 31 26
6 6 5 20 6 15 9 8 13 15 12 9 4 7 8 5 5 6 7 7 7 7 8 9 8 6 2 7 14 17 25 16 16 26 27 19 17 26 23 25 25 22 26 22
5 3 2 9 9 9 11 9 8 5 7 7 8 10 9 6 5 4 4 3 2 3 4 5 7 7 4 6 9 18 26 31 30 32 28 29 29 24 25 20 20 17 18 28
3 3 0 10 15 12 9 6 6 4 3 10 12 12 11 12 7 6 7 5 4 4 4 4 7 11 12 9 9 13 15 21 24 24 25 23 25 23 24 23 21 22 24 21
4 16 6 12 14 11 11 9 4 9 10 17 17 13 11 13 9 7 8 10 10 9 8 8 9 8 13 16 10 13 15 13 16 19 23 27 21 22 23 23 22 22 21 16
7 24 6 11 13 11 8 6 10 11 9 15 16 13 12 10 8 8 9 9 9 11 14 11 11 11 9 14 14 14 11 6 11 18 17 15 18 20 25 23 20 18 16 16
22 20 15 16 9 10 10 16 13 11 9 9 12 12 9 9 9 10 12 11 13 17 19 20 18 19 17 15 13 13 13 13 16 17 18 18 18 19 20 22 22 22 19 17
30 18 14 17 15 17 16 14 13 11 11 12 11 10 9 11 13 14 15 16 16 16 17 17 20 21 20 19 19 20 22 23 21 22 20 20 21 20 21 21 22 22 18 15
22 12 23 20 21 21 21 18 16 15 14 13 15 13 11 13 15 16 16 17 18 17 15 14 16 18 17 16 15 16 16 17 19 20 20 20 19 20 20 20 19 18 16 15
25 15 24 25 27 27 25 20 17 17 15 15 14 14 16 17 19 19 19 18 18 15 12 10 11 12 13 12 13 14 15 14 14 16 15 14 14 14 13 12 13 14 13 12
3 12 22 29 30 29 28 25 22 21 21 17 17 19 20 22 23 23 21 19 16 14 12 10 10 10 8 11 12 11 13 10 10 11 10 14 13 11 11 11 11 13 12 10
3 4 20 35 30 29 30 29 26 23 24 24 21 20 20 21 22 22 21 19 18 16 15 13 11 11 10 14 11 10 11 13 11 11 12 12 13 13 12 13 15 15 13 11
13 7 7 32 36 33 30 30 30 27 26 28 26 24 23 23 23 23 21 20 16 11 13 12 13 13 15 16 16 14 13 12 10 11 12 13 13 14 12 14 13 11 12 11
18 17 12 14 26 23 35 30 33 33 31 31 31 27 24 24 24 24 26 24 18 17 15 13 12 14 16 20 20 17 14 14 12 10 12 13 16 15 12 11 9 9 8 9
18 22 20 16 17 14 11 35 38 34 35 34 32 31 29 27 27 25 24 19 18 20 17 15 11 11 14 18 22 19 18 16 15 11 11 16 14 12 9 7 6 8 8 8
15 17 20 20 17 16 16 12 37 40 36 36 34 36 33 29 29 30 30 23 21 19 17 14 11 11 13 21 20 19 19 19 18 13 14 14 11 9 6 5 5 6 5 6
7 8 11 17 20 21 20 20 22 38 37 35 34 33 34 34 32 30 27 22 23 20 18 15 14 13 13 21 18 20 20 20 18 16 16 14 12 9 6 4 3 5 6 7
8 4 3 6 13 24 28 23 21 32 38 39 42 41 36 33 29 25 32 26 24 23 20 17 14 13 16 20 21 20 20 19 17 18 18 17 14 12 9 5 3 5 6 6
9 8 8 7 8 7 9 18 25 28 38 42 44 43 39 36 35 31 27 27 28 26 24 20 19 16 16 18 21 23 23 21 19 20 20 18 16 14 11 7 3 4 3 4
11 9 10 9 8 7 9 10 18 25 31 40 45 44 41 38 38 35 33 31 32 30 27 24 22 21 17 16 17 22 24 23 21 21 20 19 17 14 11 7 4 5 5 9

GFSNGP_850_spd_138.txt.gz
Wind_Speed
2 4 3 4 5 7 6 5 5 5 8 7 7 7 10 10 8 7 7 6 6 7 8 9 11 12 14 20 29 32 33 37 42 39 32 38 36 36 37 38 38 36 33 30
2 1 3 3 2 6 4 4 2 5 5 4 6 8 11 11 9 9 8 7 7 7 8 9 10 11 11 14 16 24 32 35 35 43 38 37 40 38 39 38 37 38 36 32
2 2 3 3 6 4 3 3 7 5 7 3 4 9 10 10 11 11 10 10 10 10 9 6 5 8 11 13 15 19 24 30 34 38 41 48 45 39 42 40 39 39 39 35
4 2 2 6 4 4 4 3 3 2 4 6 8 9 11 12 14 13 11 11 11 12 11 7 5 6 8 11 14 17 21 26 27 33 37 39 44 41 40 39 39 38 38 37
5 4 4 1 4 6 6 7 5 5 6 5 3 1 12 13 14 13 12 12 13 13 11 8 6 3 5 7 11 14 18 23 28 29 32 37 45 46 37 37 35 37 35 34
3 5 6 8 4 5 5 3 12 12 9 8 9 1 5 5 12 13 11 10 11 13 8 7 5 3 5 7 12 18 22 23 24 30 34 34 36 37 37 37 39 37 36 31
3 3 6 6 5 7 5 7 12 23 13 11 6 6 5 3 7 8 7 6 9 9 8 7 6 5 6 13 18 20 24 28 30 31 35 36 34 45 39 36 34 36 39 34
4 4 4 13 7 8 7 5 14 17 13 10 10 7 3 3 5 5 5 6 8 8 10 8 6 5 6 10 15 18 20 23 15 12 28 27 27 31 35 33 32 30 38 36
7 7 4 31 5 15 4 3 4 9 9 10 9 6 5 7 7 6 7 8 8 9 9 9 7 4 1 7 10 14 23 20 8 14 19 20 17 14 24 30 35 36 35 31
5 3 3 16 9 5 7 7 3 5 6 6 4 6 6 5 4 4 6 7 6 6 4 5 6 7 4 6 8 15 20 24 22 4 13 19 19 14 25 28 31 36 32 28
0 2 1 8 14 6 7 7 5 5 4 8 11 12 9 7 6 6 4 3 5 5 4 5 10 13 12 8 6 11 16 19 22 25 26 21 20 17 18 26 30 33 37 35
4 14 7 8 17 11 10 9 5 6 10 12 15 16 12 11 7 6 8 8 6 4 5 5 9 13 14 11 13 11 14 15 18 20 23 27 29 33 32 36 31 31 32 30
2 19 7 9 14 13 11 8 9 9 10 20 15 11 12 11 8 6 5 5 8 7 6 7 10 9 14 11 10 7 5 7 11 10 14 18 24 28 31 29 26 24 22 23
6 21 10 16 10 13 9 14 13 11 12 15 12 13 11 9 10 8 8 9 10 11 10 11 11 10 13 11 7 6 1 7 9 8 9 13 16 20 21 22 25 26 23 20
18 14 12 15 17 16 18 18 15 13 14 14 13 12 11 10 12 13 12 14 15 16 17 16 15 17 16 12 10 11 16 18 17 16 17 19 21 22 20 21 22 23 21 20
22 11 16 18 20 20 19 17 16 15 14 14 14 13 10 11 14 14 14 15 14 15 15 15 15 15 16 15 16 17 17 16 16 15 16 17 19 22 24 23 21 19 19 18
13 14 22 23 24 22 19 17 15 11 12 13 13 13 13 15 15 16 16 16 14 13 12 11 13 13 13 12 11 12 14 14 14 15 16 16 17 18 18 17 16 16 17 17
11 17 22 22 24 22 21 18 16 15 13 12 13 14 16 17 17 18 17 17 14 11 10 10 10 10 8 10 10 10 11 11 12 11 10 12 12 12 13 12 12 12 12 11
12 10 20 22 24 21 20 20 18 16 15 14 13 12 12 12 15 17 17 16 15 13 11 10 9 8 6 8 9 9 10 8 10 10 9 10 9 8 9 11 11 11 9 6
17 12 9 24 30 27 22 21 20 19 19 18 16 16 15 15 17 18 19 18 15 10 10 8 8 8 8 12 10 8 6 10 9 8 9 9 10 11 11 11 11 12 10 9
17 14 10 15 28 31 26 22 23 23 22 23 23 21 19 18 19 19 20 20 17 14 13 11 10 10 11 13 14 13 12 13 11 9 10 11 13 13 12 13 11 10 9 10
17 19 17 8 11 22 26 21 26 26 26 26 27 25 24 23 23 23 21 18 14 17 17 15 13 12 12 15 19 20 18 15 12 9 10 10 14 16 14 12 10 9 8 9
19 21 21 18 14 16 21 18 15 25 32 31 32 30 29 28 26 27 27 23 21 21 20 18 16 14 13 14 16 21 21 19 15 13 11 14 16 14 11 8 7 8 8 8
11 15 19 19 18 20 21 18 15 16 21 32 34 32 33 32 31 29 26 23 22 22 22 20 18 17 15 13 17 19 19 19 17 16 12 15 16 12 10 7 6 6 7 8
10 11 9 10 12 14 15 16 19 19 21 24 34 37 37 38 34 26 27 26 24 25 24 22 21 19 17 16 19 20 20 20 19 18 16 17 17 14 9 5 4 4 7 9
2 1 2 1 5 8 10 15 21 26 27 27 29 34 37 40 38 35 31 27 29 28 27 25 26 23 19 18 21 22 22 23 23 21 20 20 18 16 11 8 6 7 9 12
5 4 6 7 6 7 11 11 11 18 24 28 27 30 35 37 40 39 37 33 29 33 30 31 30 26 22 19 19 23 25 26 25 24 22 22 21 19 15 11 9 11 12 15

GFSNGP_850_spd_141.txt.gz
Wind_Speed
2 5 5 11 12 11 10 6 8 5 10 9 14 12 9 6 3 2 3 4 5 5 6 8 9 11 12 16 21 26 31 35 38 37 37 36 40 39 32 30 29 29 32 33
3 4 3 7 7 9 8 5 5 5 8 3 8 6 7 7 6 5 4 4 5 5 5 5 6 8 9 11 14 15 22 28 27 31 36 36 38 40 34 33 32 30 30 33
6 3 4 5 13 11 6 6 7 8 4 8 7 9 7 8 8 7 7 8 7 8 7 7 7 6 6 8 11 13 16 20 23 26 32 35 35 38 42 38 34 29 32 31
5 8 6 1 1 4 8 5 8 3 5 5 2 3 5 7 8 9 9 10 10 9 9 8 7 5 5 5 7 10 14 18 22 28 33 36 37 37 38 38 40 39 36 33
6 6 3 3 5 7 8 7 9 6 5 3 2 1 1 3 6 6 7 9 10 9 8 8 8 6 5 4 5 7 11 15 19 24 31 36 38 38 43 45 44 42 33 34
4 6 8 6 7 7 6 7 12 13 7 7 6 4 2 3 3 7 8 9 10 10 11 11 10 8 4 4 8 13 17 21 24 27 32 34 35 37 36 35 35 39 35 35
6 4 3 5 10 11 9 2 5 16 10 12 5 5 5 4 5 8 8 8 7 9 11 10 9 8 6 6 12 17 21 24 27 29 31 34 37 35 33 30 30 35 34 33
3 3 6 15 11 9 5 5 5 9 12 11 8 9 7 5 5 6 7 8 8 8 9 11 8 6 4 5 12 16 20 22 22 20 16 20 24 32 30 30 34 33 32 33
6 6 2 29 3 9 9 9 8 11 12 10 10 8 7 7 7 8 8 8 9 10 10 10 10 8 3 4 9 14 16 26 24 15 12 8 15 24 28 27 36 35 35 30
4 6 7 22 6 14 11 10 10 10 11 10 8 7 7 6 6 7 8 9 9 10 10 8 9 10 8 8 9 8 16 26 30 19 11 5 16 20 18 28 32 36 31 28
2 1 5 13 9 11 12 12 12 10 8 7 9 9 8 6 5 4 2 4 6 7 8 8 10 13 12 10 10 14 16 23 26 31 30 17 7 1 10 19 23 28 26 32
4 12 5 11 23 15 13 13 11 8 9 10 12 14 12 10 8 6 6 4 5 5 5 7 11 16 11 11 11 13 17 17 17 25 33 40 34 28 21 14 13 21 31 37
5 9 7 11 21 16 14 13 9 10 11 18 16 13 12 11 10 7 5 5 6 5 6 8 11 15 12 12 10 4 12 6 8 13 19 24 31 35 36 32 30 31 32 29
2 12 9 14 13 18 14 12 14 13 15 17 14 13 13 11 10 7 5 6 7 7 8 9 11 13 14 10 8 2 3 6 1 8 13 19 22 26 31 29 29 27 22 18
11 4 5 12 21 17 15 19 16 15 18 17 14 14 13 12 11 11 9 11 12 12 12 11 11 13 14 9 5 6 10 11 11 13 13 14 15 19 20 19 20 23 24 23
15 4 12 17 19 19 20 17 15 16 16 17 16 16 13 12 13 13 13 13 12 13 15 15 17 17 15 15 16 17 16 16 17 18 18 17 18 20 21 21 22 22 22 23
4 8 12 17 22 23 19 17 15 16 16 17 17 17 16 16 15 16 17 15 13 14 14 12 13 14 15 15 13 14 14 16 15 16 16 18 20 19 18 18 20 20 20 19
6 9 11 17 23 21 20 19 16 14 16 17 18 17 18 19 19 18 19 18 16 14 12 12 11 11 10 10 10 12 14 14 15 15 16 17 17 16 15 15 17 19 19 16
8 15 14 20 22 24 22 20 18 15 15 16 18 17 15 16 18 19 20 19 16 14 13 12 11 10 8 10 10 11 11 11 11 10 10 11 11 12 13 12 13 13 13 11
13 13 13 18 20 23 24 22 19 19 17 16 16 16 16 17 18 19 19 19 16 14 14 12 11 10 8 10 11 11 11 9 9 8 10 10 8 8 9 11 10 10 9 7
14 15 15 14 22 26 27 23 22 21 19 18 18 15 14 16 18 18 20 19 19 17 15 13 11 10 10 12 13 11 9 10 11 9 9 10 9 10 9 11 11 11 8 8
13 15 15 14 16 26 28 25 23 22 22 21 20 19 18 18 19 19 20 18 17 18 17 15 14 11 11 12 15 15 14 12 12 9 9 10 13 14 13 13 12 11 10 10
11 12 15 15 11 18 25 26 23 21 23 25 25 24 23 23 21 22 23 20 20 19 19 18 15 12 13 13 14 17 19 18 16 12 10 12 13 15 16 15 14 11 10 12
9 13 16 19 17 13 17 24 23 19 16 19 27 28 28 28 27 25 24 22 20 22 22 20 18 17 16 15 14 16 19 21 20 16 14 13 16 19 17 14 11 10 11 12
6 4 13 19 23 23 20 21 21 21 19 19 17 23 30 31 33 28 26 26 23 22 24 23 20 20 19 18 17 16 18 21 22 20 19 16 18 20 17 12 10 10 11 12
4 1 2 2 7 13 19 22 23 22 23 23 23 23 23 28 32 34 34 30 26 25 25 24 24 24 24 22 20 18 19 21 22 22 22 19 19 21 18 13 10 10 11 14
6 7 7 8 8 8 11 13 14 15 18 24 27 27 27 25 28 32 34 35 33 27 29 27 25 26 26 24 22 20 21 23 24 24 25 23 22 22 21 17 12 11 14 17

GFSNGP_850_spd_147.txt.gz
Wind_Speed
22 8 20 17 19 23 22 17 13 10 11 12 16 14 17 17 12 12 13 13 13 13 12 12 11 10 10 10 12 13 16 18 19 23 22 24 23 25 24 26 25 26 24 24
23 24 15 18 18 20 18 14 17 13 12 7 7 13 17 23 19 14 15 14 14 13 13 12 11 9 8 8 8 10 12 13 16 20 21 22 23 28 28 27 26 27 28 25
21 21 17 17 17 16 13 13 14 15 9 9 11 6 9 13 17 16 15 14 13 12 12 11 10 9 7 7 7 6 7 10 13 14 18 21 23 28 28 29 29 32 31 31
16 15 20 15 18 14 13 11 12 10 12 3 5 7 10 11 18 14 13 13 12 11 11 9 9 9 8 6 5 5 4 5 6 8 11 15 18 23 25 27 29 32 33 34
13 9 13 19 7 14 8 10 11 11 7 7 4 5 3 5 4 11 12 11 11 10 10 9 9 8 8 6 4 3 2 4 7 10 14 16 18 20 22 26 31 33 34 35
9 15 19 24 16 11 4 10 12 9 10 10 10 10 8 16 13 12 11 11 10 10 9 8 8 5 6 5 3 1 3 7 12 16 20 25 28 30 30 29 29 28 32 34
17 15 23 15 11 7 9 2 11 12 11 12 10 6 14 12 10 9 9 9 9 9 9 8 6 7 7 4 5 2 5 8 11 16 19 20 24 29 34 34 33 33 32 35
18 21 17 20 23 11 9 9 7 4 9 7 8 9 9 9 8 8 8 8 8 8 7 9 8 9 8 6 3 5 7 10 14 18 23 25 24 24 26 27 27 29 31 34
13 15 10 10 16 10 7 9 7 6 6 6 9 9 8 7 6 6 6 7 7 9 7 9 10 12 10 7 8 6 8 13 18 23 31 23 20 20 20 20 21 25 28 31
7 4 2 18 8 14 7 10 7 6 8 7 8 7 7 6 6 6 5 7 8 8 9 7 10 12 10 9 10 6 11 15 19 29 37 25 16 12 11 12 18 20 25 25
16 6 4 22 5 11 9 9 9 6 6 6 5 6 6 6 6 6 6 7 8 9 9 9 12 12 14 13 10 7 10 10 16 28 37 38 35 26 14 7 3 9 15 19
11 16 6 18 12 9 11 10 10 10 8 6 5 6 8 9 8 7 6 7 7 8 10 13 14 17 16 13 10 9 8 9 15 21 27 28 35 39 38 30 18 11 7 2
3 16 14 27 19 12 10 11 11 9 8 7 8 12 11 11 10 9 7 7 7 8 9 13 16 21 17 14 10 9 8 8 9 13 19 23 25 35 40 40 41 43 39 36
6 8 10 22 16 15 16 13 11 8 8 9 12 13 12 11 11 8 6 7 7 9 10 12 16 20 18 14 13 8 6 1 7 11 15 15 20 23 27 29 33 35 36 39
3 10 11 14 12 17 18 15 12 10 10 13 12 13 12 11 11 9 8 8 8 8 9 13 19 17 16 14 12 5 5 5 8 9 9 11 12 16 20 22 24 28 28 30
7 3 11 14 19 18 16 14 11 12 14 13 13 13 12 11 10 10 9 10 9 8 8 13 19 20 14 12 7 8 8 5 10 10 9 9 7 9 14 16 16 16 13 21
3 10 10 15 15 13 12 12 12 14 13 13 13 12 12 11 11 11 11 9 9 8 5 5 14 17 15 9 10 10 10 11 10 11 8 8 8 7 10 9 9 8 10 15
10 5 3 6 8 10 12 11 11 12 13 13 14 14 13 13 13 13 12 11 11 10 10 11 11 13 14 13 11 11 11 12 11 10 10 9 9 8 8 8 9 9 10 14
13 8 3 2 7 10 11 11 11 12 13 15 15 15 13 13 13 14 13 12 12 11 10 11 15 15 13 14 13 10 10 10 10 10 10 11 9 8 9 10 11 11 13 13
13 9 7 6 5 11 12 12 12 13 14 15 15 14 14 14 14 14 14 13 11 9 12 13 14 11 11 12 15 11 11 12 10 10 10 11 9 9 9 10 10 10 11 10
18 15 13 11 13 12 14 14 15 15 14 15 15 15 15 15 15 15 15 15 14 11 12 15 14 11 11 12 15 10 12 12 12 12 12 12 11 11 11 12 11 11 10 10
18 17 17 23 21 22 17 14 14 13 15 15 15 14 15 15 16 16 16 15 14 18 14 15 15 14 13 15 13 12 12 13 13 13 14 14 14 13 14 14 14 13 12 12
12 13 14 19 20 19 18 17 14 14 16 18 18 18 17 15 16 17 17 19 16 19 18 17 16 19 20 16 13 14 14 14 14 14 14 14 16 16 15 16 17 16 15 14
7 11 12 14 11 15 15 17 25 13 20 23 19 19 18 17 16 16 14 14 17 21 19 19 22 22 21 17 15 15 16 16 17 16 16 15 16 17 18 18 18 18 17 16
5 6 11 16 3 8 12 16 24 28 23 23 20 19 20 20 20 17 17 18 21 21 25 22 27 24 21 19 17 17 16 17 18 18 18 17 17 16 17 19 19 19 18 16
7 4 5 13 13 13 16 21 19 21 21 21 19 17 17 18 18 19 19 20 21 24 22 22 29 31 27 25 22 21 19 18 18 22 21 20 19 19 19 20 20 20 20 18
6 6 7 7 10 10 12 18 17 13 16 18 22 24 25 21 16 15 16 19 21 23 23 24 25 30 30 28 27 24 22 20 20 19 21 22 22 22 22 22 21 21 20 19